When you browse on this site, cookies collect data to enhance your experience and personalize the content and advertising you see.
Visit our Privacy Policy to learn more. By continuing to use the site, you agree to this use of cookies and data.
  • en Suisse
  • Liste des pays
  • À 7 jours
  • Température de l'eau
  • Carte météo
  • Widgets météo
  • user-avatar
    Se connecter

    Météo par heure à Marseille

    Ce jour, 19 Novembre, Mardi

    Heure Température Précipitation Vent Pression Humidité
    00:00 +7°C° 0 mm 5 m/s 753 mmHg 69%
    01:00 +7°C° 0.2 mm 5 m/s 753 mmHg 71%
    02:00 +6°C° 0.2 mm 5 m/s 753 mmHg 74%
    03:00 +5°C° 0.2 mm 6 m/s 752 mmHg 76%
    04:00 +6°C° 0 mm 5 m/s 753 mmHg 76%
    05:00 +6°C° 0 mm 5 m/s 753 mmHg 77%
    06:00 +6°C° 0 mm 5 m/s 753 mmHg 77%
    07:00 +6°C° 0.1 mm 5 m/s 754 mmHg 77%
    08:00 +6°C° 0.1 mm 4 m/s 754 mmHg 77%
    09:00 +7°C° 0.1 mm 4 m/s 754 mmHg 77%
    10:00 +7°C° 0.1 mm 4 m/s 754 mmHg 77%
    11:00 +8°C° 0.1 mm 3 m/s 754 mmHg 76%
    12:00 +9°C° 0.1 mm 3 m/s 754 mmHg 76%
    13:00 +9°C° 0 mm 3 m/s 754 mmHg 75%
    14:00 +10°C° 0 mm 2 m/s 754 mmHg 74%
    15:00 +10°C° 0 mm 2 m/s 755 mmHg 74%
    16:00 +10°C° 0 mm 2 m/s 755 mmHg 76%
    17:00 +9°C° 0 mm 2 m/s 755 mmHg 78%
    18:00 +9°C° 0 mm 2 m/s 755 mmHg 80%
    19:00 +9°C° 0 mm 2 m/s 756 mmHg 81%
    20:00 +10°C° 0 mm 1 m/s 756 mmHg 82%
    21:00 +10°C° 0 mm 1 m/s 756 mmHg 82%
    22:00 +10°C° 0 mm 1 m/s 756 mmHg 83%
    23:00 +10°C° 0 mm 1 m/s 756 mmHg 83%

    Demain, 20 Novembre, Mercredi

    Heure Température Précipitation Vent Pression Humidité
    00:00 +10°C° 0 mm 1 m/s 756 mmHg 84%
    01:00 +9°C° 0 mm 1 m/s 756 mmHg 83%
    02:00 +9°C° 0 mm 1 m/s 756 mmHg 83%
    03:00 +9°C° 0 mm 1 m/s 756 mmHg 82%
    04:00 +9°C° 0 mm 1 m/s 755 mmHg 81%
    05:00 +10°C° 0 mm 1 m/s 755 mmHg 81%
    06:00 +10°C° 0 mm 1 m/s 755 mmHg 80%
    07:00 +10°C° 0 mm 1 m/s 755 mmHg 78%
    08:00 +11°C° 0 mm 1 m/s 756 mmHg 76%
    09:00 +10°C° 0 mm 2 m/s 756 mmHg 74%
    10:00 +12°C° 0 mm 2 m/s 755 mmHg 71%
    11:00 +12°C° 0 mm 2 m/s 755 mmHg 69%
    12:00 +13°C° 0 mm 2 m/s 755 mmHg 67%
    13:00 +13°C° 0 mm 2 m/s 755 mmHg 66%
    14:00 +13°C° 0 mm 2 m/s 754 mmHg 65%
    15:00 +13°C° 0 mm 2 m/s 754 mmHg 64%
    16:00 +12°C° 0 mm 3 m/s 754 mmHg 65%
    17:00 +11°C° 0 mm 3 m/s 754 mmHg 66%
    18:00 +11°C° 0 mm 3 m/s 754 mmHg 67%
    19:00 +11°C° 0 mm 3 m/s 755 mmHg 68%
    20:00 +11°C° 0 mm 3 m/s 755 mmHg 69%
    21:00 +10°C° 0 mm 4 m/s 755 mmHg 70%
    22:00 +10°C° 0 mm 4 m/s 755 mmHg 71%
    23:00 +10°C° 0 mm 4 m/s 755 mmHg 72%

    Après-demain, 21 Novembre, Jeudi

    Heure Température Précipitation Vent Pression Humidité
    00:00 +10°C° 0 mm 4 m/s 754 mmHg 74%
    01:00 +10°C° 0 mm 4 m/s 754 mmHg 75%
    02:00 +10°C° 0 mm 4 m/s 754 mmHg 76%
    03:00 +8°C° 0 mm 4 m/s 754 mmHg 77%
    04:00 +8°C° 0.1 mm 5 m/s 754 mmHg 78%
    05:00 +8°C° 0.1 mm 5 m/s 754 mmHg 79%
    06:00 +8°C° 0.1 mm 6 m/s 753 mmHg 80%
    07:00 +9°C° 0.2 mm 6 m/s 753 mmHg 77%
    08:00 +9°C° 0.2 mm 6 m/s 754 mmHg 75%
    09:00 +10°C° 0.2 mm 7 m/s 754 mmHg 72%
    10:00 +11°C° 0 mm 7 m/s 753 mmHg 70%
    11:00 +12°C° 0 mm 7 m/s 753 mmHg 68%
    12:00 +12°C° 0 mm 8 m/s 753 mmHg 65%
    13:00 +12°C° 0.2 mm 8 m/s 753 mmHg 67%
    14:00 +12°C° 0.2 mm 8 m/s 753 mmHg 68%
    15:00 +12°C° 0.2 mm 7 m/s 753 mmHg 69%
    16:00 +12°C° 0.3 mm 7 m/s 753 mmHg 71%
    17:00 +12°C° 0.3 mm 7 m/s 753 mmHg 73%
    18:00 +11°C° 0.3 mm 7 m/s 753 mmHg 75%
    19:00 +11°C° 0.4 mm 7 m/s 753 mmHg 75%
    20:00 +11°C° 0.4 mm 7 m/s 754 mmHg 74%
    21:00 +11°C° 0.4 mm 7 m/s 754 mmHg 74%
    22:00 +11°C° 0.4 mm 7 m/s 754 mmHg 76%
    23:00 +11°C° 0.4 mm 6 m/s 754 mmHg 78%

    22 Novembre, Vendredi

    Heure Température Précipitation Vent Pression Humidité
    00:00 +11°C° 0.4 mm 6 m/s 753 mmHg 79%
    01:00 +11°C° 0.4 mm 6 m/s 753 mmHg 80%
    02:00 +12°C° 0.4 mm 5 m/s 753 mmHg 82%
    03:00 +10°C° 0.4 mm 5 m/s 753 mmHg 83%
    04:00 +10°C° 0.3 mm 5 m/s 753 mmHg 83%
    05:00 +10°C° 0.3 mm 5 m/s 753 mmHg 82%
    06:00 +10°C° 0.3 mm 5 m/s 753 mmHg 82%
    07:00 +10°C° 0.2 mm 6 m/s 753 mmHg 80%
    08:00 +11°C° 0.2 mm 7 m/s 753 mmHg 78%
    09:00 +11°C° 0.2 mm 7 m/s 753 mmHg 76%
    10:00 +12°C° 0.2 mm 8 m/s 752 mmHg 74%
    11:00 +12°C° 0.2 mm 8 m/s 752 mmHg 73%
    12:00 +13°C° 0.2 mm 9 m/s 752 mmHg 71%
    13:00 +13°C° 0.5 mm 8 m/s 751 mmHg 73%
    14:00 +12°C° 0.5 mm 8 m/s 751 mmHg 75%
    15:00 +12°C° 0.5 mm 8 m/s 750 mmHg 78%
    16:00 +12°C° 0.8 mm 8 m/s 750 mmHg 79%
    17:00 +12°C° 0.8 mm 9 m/s 750 mmHg 80%
    18:00 +12°C° 0.8 mm 9 m/s 750 mmHg 82%
    19:00 +12°C° 2.4 mm 10 m/s 749 mmHg 84%
    20:00 +12°C° 2.4 mm 10 m/s 749 mmHg 85%
    21:00 +12°C° 2.4 mm 11 m/s 749 mmHg 87%
    22:00 +12°C° 2.9 mm 10 m/s 748 mmHg 88%
    23:00 +12°C° 2.9 mm 9 m/s 747 mmHg 89%

    23 Novembre, Samedi

    Heure Température Précipitation Vent Pression Humidité
    00:00 +12°C° 2.9 mm 9 m/s 747 mmHg 90%
    01:00 +12°C° 3.2 mm 9 m/s 746 mmHg 91%
    02:00 +12°C° 3.2 mm 10 m/s 745 mmHg 93%
    03:00 +13°C° 3.2 mm 10 m/s 745 mmHg 94%
    04:00 +13°C° 1.6 mm 8 m/s 745 mmHg 92%
    05:00 +14°C° 1.6 mm 6 m/s 745 mmHg 90%
    06:00 +14°C° 1.6 mm 4 m/s 745 mmHg 88%
    07:00 +14°C° 0.5 mm 5 m/s 745 mmHg 86%
    08:00 +14°C° 0.5 mm 5 m/s 745 mmHg 83%
    09:00 +14°C° 0.5 mm 5 m/s 745 mmHg 81%
    10:00 +14°C° 0.6 mm 5 m/s 745 mmHg 78%
    11:00 +15°C° 0.6 mm 5 m/s 745 mmHg 75%
    12:00 +15°C° 0.6 mm 5 m/s 746 mmHg 72%
    13:00 +15°C° 0.4 mm 5 m/s 746 mmHg 74%
    14:00 +14°C° 0.4 mm 5 m/s 746 mmHg 75%
    15:00 +13°C° 0.4 mm 6 m/s 746 mmHg 77%
    16:00 +13°C° 0.1 mm 6 m/s 746 mmHg 76%
    17:00 +13°C° 0.1 mm 6 m/s 747 mmHg 76%
    18:00 +11°C° 0.1 mm 7 m/s 748 mmHg 76%
    19:00 +11°C° 0 mm 7 m/s 748 mmHg 77%
    20:00 +10°C° 0 mm 7 m/s 749 mmHg 78%
    21:00 +10°C° 0 mm 7 m/s 749 mmHg 79%
    22:00 +10°C° 0 mm 6 m/s 749 mmHg 80%
    23:00 +9°C° 0 mm 6 m/s 750 mmHg 81%

    24 Novembre, Dimanche

    Heure Température Précipitation Vent Pression Humidité
    00:00 +9°C° 0 mm 6 m/s 750 mmHg 82%
    01:00 +9°C° 0 mm 6 m/s 751 mmHg 82%
    02:00 +8°C° 0 mm 6 m/s 751 mmHg 82%
    03:00 +8°C° 0 mm 6 m/s 751 mmHg 82%
    04:00 +8°C° 0 mm 6 m/s 752 mmHg 80%
    05:00 +8°C° 0 mm 6 m/s 753 mmHg 79%
    06:00 +8°C° 0 mm 6 m/s 753 mmHg 78%
    07:00 +9°C° 0 mm 6 m/s 754 mmHg 74%
    08:00 +9°C° 0 mm 5 m/s 755 mmHg 70%
    09:00 +11°C° 0 mm 4 m/s 756 mmHg 66%
    10:00 +12°C° 0 mm 4 m/s 756 mmHg 63%
    11:00 +13°C° 0 mm 4 m/s 756 mmHg 60%
    12:00 +14°C° 0 mm 4 m/s 757 mmHg 57%
    13:00 +14°C° 0 mm 4 m/s 757 mmHg 58%
    14:00 +15°C° 0 mm 4 m/s 757 mmHg 60%
    15:00 +15°C° 0 mm 4 m/s 757 mmHg 62%
    16:00 +14°C° 0 mm 3 m/s 757 mmHg 64%
    17:00 +13°C° 0 mm 3 m/s 757 mmHg 67%
    18:00 +13°C° 0 mm 2 m/s 758 mmHg 69%
    19:00 +13°C° 0 mm 2 m/s 758 mmHg 69%
    20:00 +13°C° 0 mm 2 m/s 759 mmHg 69%
    21:00 +13°C° 0 mm 2 m/s 759 mmHg 69%
    22:00 +13°C° 0 mm 1 m/s 759 mmHg 69%
    23:00 +13°C° 0 mm 1 m/s 759 mmHg 69%
    Voir plus